Location: Newark
(43.6583°N, 1.6617°E)
Time: 02:12:17
(UTC+00:00)

Transit 4A - Pass Details

Date: 25 August 2019
Orbit: 865 x 980 km, 66.8° (Epoch: 16 September)

Event Time Altitude Azimuth Distance (km) Brightness Sun altitude
Rises 18:18:09 0° 235° (SW) 3,667 11.7 3.3°
Reaches altitude 10° 18:20:53 10° 242° (WSW) 2,726 11.3 2.8°
Maximum altitude 18:26:51 40° 311° (NW) 1,402 9.7 1.8°
Drops below altitude 10° 18:32:50 10° 20° (NNE) 2,721 10.3 0.7°
Sets 18:35:34 0° 28° (NNE) 3,659 10.9 0.2°
